Hourly Weather Roundup
Issued by NWS Central Illinois

Home | Current Version | Previous Version | Text Only | Print | Product List | Glossary On
Versions: 1 2 3 4 5 6 7 8 9 10 11 12 13 14 15 16 17 18 19 20 21 22 23 24 25 26 27 28 29 30 31 32 33 34 35 36 37 38 39 40 41 42 43 44 45 46 47 48 49 50
000
NZUS43 KILX 010810
HWRILX

AREA WEATHER ROUNDUP
NATIONAL WEATHER SERVICE, LINCOLN IL
300 AM CDT WED OCT 01 2014


CITY           SKY/WX    TMP DP  RH WIND       PRES   REMARKS
BLOOMINGTON    NOT AVBL
CHAMPAIGN      CLEAR     50  47  89 E9        29.97F
DECATUR        CLEAR     50  47  89 E7        29.96F
FLORA          CLEAR     57  53  88 CALM      29.94S
GALESBURG      PTCLDY    51  47  88 E10       29.93F
JACKSONVILLE   CLEAR     56  52  87 E7        29.93F FOG
LACON          CLEAR     49  46  87 E3        29.97F
LAWRENCEVILLE  CLEAR     57  54  89 NE6       29.95F
LITCHFIELD     CLEAR     57  52  83 E9        29.93S
$$


CITY           SKY/WX    TMP DP  RH WIND       PRES   REMARKS
LINCOLN        CLEAR     52  48  85 E6        29.94F
MACOMB         CLEAR     52  49  89 E8        29.95S
MATTOON        CLEAR     51  48  89 CALM      29.95S
MT CARMEL AP   CLEAR     57  55  94 NE5       29.94F
OLNEY-NOBLE AP CLEAR     55  54  94 CALM      29.94F
PARIS          CLEAR     51  49  96 CALM      29.98S
PEORIA         CLEAR     54  46  74 E10       29.95F
PONTIAC        CLEAR     48  46  93 E5        29.99F
RANTOUL        CLEAR     50  46  85 E6        29.99S
ROBINSON       CLEAR     56  53  92 E5        29.96S
SPRINGFIELD    CLEAR     53  49  86 E8        29.94F
TAYLORVILLE    CLEAR     52  48  87 E6        29.94F
$$

...REGIONAL REPORTS...


CITY           SKY/WX    TMP DP  RH WIND       PRES   REMARKS
CHICAGO O`HARE CLOUDY    54  46  74 SE13      30.00S
KANKAKEE       CLEAR     46  44  95 NE6       30.00F
MOLINE         NOT AVBL
MOUNT VERNON   NOT AVBL
PITTSFIELD     CLEAR     58  55  87 E5        29.92S
QUINCY         CLEAR     58  53  84 SE12      29.88F
ROCKFORD       MOCLDY    51  47  86 E5        30.01F
$$


CITY           SKY/WX    TMP DP  RH WIND       PRES   REMARKS
BURLINGTON     CLEAR     54  50  86 SE10      29.90F
CEDAR RAPIDS   NOT AVBL
DES MOINES     RAIN      63  58  83 SE3       29.83R
KIRKSVILLE     MOCLDY    61  32  33 SE8       29.85F
OTTUMWA        PTCLDY    56  51  84 SE10      29.86F
ST LOUIS       CLEAR     66  60  81 E8        29.90F
$$


CITY           SKY/WX    TMP DP  RH WIND       PRES   REMARKS
TERRE HAUTE    CLEAR     53  48  83 E6        29.97F
EVANSVILLE     CLEAR     62  59  90 NE7       29.93F
INDIANAPOLIS   CLEAR     50  45  83 E6        29.98F
LAFAYETTE      CLEAR     46  44  93 E6        29.99F
MADISON        CLOUDY    49  45  86 E6        29.99F
MILWAUKEE      CLOUDY    55  49  80 E6        30.00F
$$





USA.gov is the U.S. government's official web portal to all federal, state and local government web resources and services.